Flag for Finland Weather past 2 weeks in Tampere, Finland

Now
43 °F

Passing clouds.


Feels Like: 41 °F
Forecast: 48 / 62 °F
Wind: 3 mph from North

Location: Tampere / Pirkkala

Current Time: May 26, 2015 at 6:50:44 AM

Latest Report: May 26, 2015 at 5:50 AM


Visibility: N/A

Pressure: 29.86 "Hg

Humidity: 87%

Dew point: 39 °F

Location of TampereLocation

Historic Weather in Tampere — Graph

°F

Tampere temperature yesterday

Maximum temperature yesterday: 64 °F (at 2:50 PM)
Minimum temperature yesterday: 36 °F (at 12:20 AM)
Average temperature yesterday: 53 °F

Past Weeks' High & Low Weather Summary

 TemperatureHumidityPressure
High64 °F (May 25, 2:50 PM)100% (May 11, 5:20 AM)30.15 "Hg (May 11, 5:20 AM)
Low34 °F (May 15, 12:50 AM)30% (May 22, 3:50 PM)29.12 "Hg (May 13, 5:50 PM)
Average48 °F70%29.76 "Hg
* Reported May 11 5:20 AM — May 26 5:20 AM, Tampere, Weather by CustomWeather, © 2015

Note: Actual official high and low records may vary slightly from our data, if they occured in-between our weather recording intervals... More about our weather records

Advertising

Tampere weather history for previous 24 hours

 ConditionsComfort  
Time TempWeatherWind HumidityBarometerVisibility
5:20 AM
Tue, May 26
43 °FSunny.1 mph87%29.86 "Hg10 mi
4:50 AM41 °FClear.2 mph87%29.86 "Hg10 mi
4:20 AM41 °FClear.1 mph87%29.86 "Hg10 mi
3:50 AM39 °FClear.2 mph93%29.86 "Hg10 mi
3:20 AM39 °FClear.5 mph93%29.86 "Hg10 mi
2:50 AM37 °FClear.5 mph93%29.86 "Hg10 mi
2:20 AM37 °FClear.2 mph93%29.86 "Hg10 mi
1:50 AM41 °FClear.2 mph87%29.86 "Hg10 mi
1:20 AM41 °FClear.No wind87%29.86 "Hg10 mi
12:20 AM45 °FClear.2 mph76%29.86 "Hg10 mi
11:20 PM
Mon, May 25
48 °FSunny.5 mph66%29.86 "Hg10 mi
10:50 PM50 °FSunny.6 mph62%29.86 "Hg10 mi
10:20 PM52 °FSunny.5 mph58%29.86 "Hg10 mi
9:50 PM54 °FSunny.7 mph54%29.86 "Hg10 mi
9:20 PM55 °FSunny.8 mph55%29.86 "Hg10 mi
8:50 PM57 °FPassing clouds.9 mph48%29.86 "HgN/A
8:20 PM59 °FSunny.10 mph45%29.86 "Hg10 mi
7:50 PM59 °FPassing clouds.9 mph48%29.83 "HgN/A
7:20 PM61 °FSunny.10 mph42%29.83 "Hg10 mi
6:50 PM61 °FSunny.14 mph42%29.86 "Hg10 mi
6:20 PM61 °FSunny.15 mph36%29.86 "Hg10 mi
5:50 PM61 °FSunny.15 mph39%29.86 "Hg10 mi
5:20 PM63 °FSunny.17 mph42%29.83 "Hg10 mi
4:50 PM63 °FSunny.14 mph39%29.83 "Hg10 mi
4:20 PM63 °FSunny.15 mph39%29.83 "Hg10 mi
3:50 PM63 °FPassing clouds.13 mph39%29.83 "HgN/A
3:20 PM64 °FSunny.17 mph34%29.83 "Hg10 mi
2:50 PM64 °FSunny.13 mph43%29.83 "Hg10 mi
2:20 PM63 °FSunny.15 mph42%29.83 "Hg10 mi
1:50 PM63 °FPassing clouds.13 mph42%29.83 "HgN/A
1:20 PM63 °FSunny.14 mph42%29.83 "Hg10 mi
12:50 PM61 °FSunny.15 mph42%29.83 "Hg10 mi
12:20 PM61 °FPassing clouds.13 mph48%29.83 "HgN/A
11:50 AM61 °FScattered clouds.15 mph45%29.86 "HgN/A
11:20 AM59 °FPassing clouds.10 mph51%29.86 "HgN/A
10:50 AM57 °FPassing clouds.12 mph51%29.86 "HgN/A
10:20 AM57 °FPassing clouds.10 mph55%29.83 "HgN/A
9:50 AM55 °FPassing clouds.9 mph59%29.86 "HgN/A
9:20 AM54 °FSunny.9 mph63%29.86 "Hg10 mi
8:50 AM52 °FPassing clouds.7 mph62%29.86 "HgN/A
8:20 AM50 °FSunny.7 mph62%29.86 "Hg10 mi
7:50 AM48 °FPassing clouds.7 mph66%29.86 "HgN/A
7:20 AM46 °FSunny.7 mph66%29.86 "Hg10 mi
6:50 AM45 °FSunny.6 mph71%29.86 "Hg10 mi
6:20 AM45 °FPassing clouds.6 mph66%29.86 "HgN/A
Weather by CustomWeather, © 2015

See weather overviewHow to use our weather pages